カタログに戻る

MKA-N 2

運用中科学SSO
NORAD 42836·PAYLOAD·🇷🇺 Russia
この衛星名は、まだ公式ソースで確認されていません。

打ち上げ Jul 14, 2017 から Baikonur Cosmodrome

Loading…

次のパス (今後24時間)

TLE

最新Source: Space-Track

元期: Sep 14, 2026, 21:13 UTC

1 42836U 17042M   26257.88406307  .00003499  00000-0  22227-3 0  9998
2 42836  97.4367  57.0390 0004942 134.3228 225.8407 15.09483256500542

AllMySatでMKA-N 2をリアルタイム追跡

Download on the App Store